| time (UTC) | temp C | wind direction | speed KPH | gust KPH | rain 1hr cm | rain 24hr cm | rain mn cm | humidity % | barometer mb |
| 20260505163025 | 26 | 245 | 9.7 | 27.4 | 0.00 | 0.00 | 0.00 | 41 | 1009.3 |
| 20260505161531 | 25 | 276 | 12.9 | 27.4 | 0.00 | 0.00 | 0.00 | 41 | 1009.4 |
| 20260505153052 | 24 | 316 | 4.8 | 16.1 | 0.00 | 0.00 | 0.00 | 46 | 1010.0 |
| 20260505151546 | 23 | 200 | 6.4 | 19.3 | 0.00 | 0.00 | 0.00 | 48 | 1009.9 |
| 20260505124511 | 19 | 212 | 12.9 | 33.8 | 0.00 | 0.00 | 0.00 | 57 | 1010.3 |
| 20260505123012 | 18 | 245 | 14.5 | 25.7 | 0.00 | 0.00 | 0.00 | 58 | 1010.3 |
| 20260505121515 | 18 | 262 | 6.4 | 17.7 | 0.00 | 0.00 | 0.00 | 60 | 1010.4 |
| 20260505120019 | 18 | 240 | 11.3 | 19.3 | 0.00 | 0.00 | 0.00 | 62 | 1010.4 |
| 20260505114522 | 17 | 235 | 8.0 | 14.5 | 0.00 | 0.00 | 0.00 | 65 | 1010.3 |
| 20260505113032 | 16 | 224 | 6.4 | 12.9 | 0.00 | 0.00 | 0.00 | 67 | 1010.4 |
| 20260505111548 | 16 | 216 | 3.2 | 11.3 | 0.00 | 0.00 | 0.00 | 69 | 1010.4 |
| 20260505101548 | 13 | 220 | 3.2 | 14.5 | 0.00 | 0.00 | 0.00 | 73 | 1010.2 |
| 20260505100052 | 13 | 230 | 1.6 | 6.4 | 0.00 | 0.00 | 0.00 | 74 | 1010.3 |
| 20260505094558 | 14 | 282 | 0.0 | 4.8 | 0.00 | 0.00 | 0.00 | 72 | 1009.8 |
| 20260505093006 | 14 | 282 | 1.6 | 4.8 | 0.00 | 0.00 | 0.00 | 72 | 1009.4 |
| 20260505091514 | 14 | 253 | 1.6 | 6.4 | 0.00 | 0.00 | 0.00 | 72 | 1009.2 |
| 20260505090017 | 14 | 270 | 0.0 | 8.0 | 0.00 | 0.00 | 0.00 | 72 | 1009.3 |
| 20260505084515 | 14 | 249 | 0.0 | 6.4 | 0.00 | 0.00 | 0.00 | 71 | 1009.5 |
| 20260505083014 | 13 | 272 | 3.2 | 6.4 | 0.00 | 0.00 | 0.00 | 72 | 1009.6 |
| 20260505081522 | 13 | 272 | 0.0 | 4.8 | 0.00 | 0.00 | 0.00 | 71 | 1009.3 |
| 20260505080031 | 13 | 272 | 1.6 | 3.2 | 0.00 | 0.00 | 0.00 | 70 | 1009.4 |
| 20260505074505 | 13 | 272 | 1.6 | 4.8 | 0.00 | 0.00 | 0.00 | 70 | 1009.5 |
| 20260505073012 | 14 | 272 | 0.0 | 3.2 | 0.00 | 0.00 | 0.00 | 68 | 1009.4 |
| 20260505071515 | 14 | 272 | 1.6 | 4.8 | 0.00 | 0.00 | 0.00 | 67 | 1009.4 |
| 20260505070020 | 14 | 272 | 1.6 | 3.2 | 0.00 | 0.00 | 0.00 | 66 | 1009.4 |
| 20260505064533 | 15 | 239 | 0.0 | 3.2 | 0.00 | 0.00 | 0.00 | 66 | 1009.3 |
| 20260505063027 | 15 | 239 | 1.6 | 4.8 | 0.00 | 0.00 | 0.00 | 65 | 1009.4 |
| 20260505061527 | 15 | 239 | 0.0 | 3.2 | 0.00 | 0.00 | 0.00 | 64 | 1009.5 |
| 20260505060015 | 15 | 239 | 1.6 | 4.8 | 0.00 | 0.00 | 0.00 | 64 | 1009.6 |
| 20260505054517 | 15 | 239 | 1.6 | 4.8 | 0.00 | 0.00 | 0.00 | 63 | 1009.6 |
| 20260505053021 | 15 | 240 | 1.6 | 6.4 | 0.00 | 0.00 | 0.00 | 62 | 1009.6 |
| 20260505051521 | 15 | 239 | 0.0 | 4.8 | 0.00 | 0.00 | 0.00 | 62 | 1009.7 |
| 20260505041528 | 16 | 193 | 1.6 | 8.0 | 0.00 | 0.00 | 0.00 | 58 | 1009.9 |
| 20260505040012 | 16 | 228 | 3.2 | 6.4 | 0.00 | 0.00 | 0.00 | 57 | 1009.8 |
| 20260505034507 | 16 | 210 | 3.2 | 9.7 | 0.00 | 0.00 | 0.00 | 56 | 1009.9 |
| 20260505033005 | 16 | 237 | 3.2 | 9.7 | 0.00 | 0.00 | 0.00 | 55 | 1010.0 |
| 20260505031509 | 16 | 211 | 1.6 | 12.9 | 0.00 | 0.00 | 0.00 | 55 | 1010.1 |
| 20260505030013 | 17 | 185 | 4.8 | 11.3 | 0.00 | 0.00 | 0.00 | 54 | 1010.1 |
| 20260505024536 | 17 | 185 | 3.2 | 14.5 | 0.00 | 0.00 | 0.00 | 53 | 1010.1 |
| 20260505023025 | 17 | 204 | 4.8 | 16.1 | 0.00 | 0.00 | 0.00 | 52 | 1010.2 |
| 20260505021536 | 17 | 153 | 8.0 | 17.7 | 0.00 | 0.00 | 0.00 | 51 | 1010.2 |
| 20260505020031 | 18 | 139 | 4.8 | 17.7 | 0.00 | 0.00 | 0.00 | 50 | 1010.3 |
| 20260505014537 | 18 | 176 | 8.0 | 19.3 | 0.00 | 0.00 | 0.00 | 48 | 1010.2 |
| 20260505013035 | 18 | 151 | 1.6 | 16.1 | 0.00 | 0.00 | 0.00 | 45 | 1010.1 |
| 20260505011549 | 19 | 202 | 4.8 | 11.3 | 0.00 | 0.00 | 0.00 | 40 | 1009.9 |
| 20260505010047 | 20 | 169 | 4.8 | 14.5 | 0.00 | 0.00 | 0.00 | 39 | 1009.5 |
| 20260505004549 | 20 | 220 | 1.6 | 9.7 | 0.00 | 0.00 | 0.00 | 39 | 1009.3 |
| 20260505003057 | 20 | 156 | 4.8 | 11.3 | 0.00 | 0.00 | 0.00 | 37 | 1009.2 |
| 20260505001547 | 20 | 279 | 8.0 | 17.7 | 0.00 | 0.00 | 0.00 | 36 | 1009.0 |
| 20260505000042 | 20 | 232 | 6.4 | 19.3 | 0.00 | 0.00 | 0.00 | 36 | 1008.7 |
| 20260504234541 | 21 | 235 | 4.8 | 20.9 | 0.00 | 0.00 | 0.00 | 35 | 1008.6 |
| 20260504233049 | 21 | 285 | 12.9 | 25.7 | 0.00 | 0.00 | 0.00 | 35 | 1008.3 |
| 20260504231602 | 21 | 237 | 6.4 | 12.9 | 0.00 | 0.00 | 0.00 | 34 | 1008.3 |
| 20260504230100 | 21 | 251 | 8.0 | 22.5 | 0.00 | 0.00 | 0.00 | 34 | 1008.1 |
| 20260504224506 | 22 | 218 | 9.7 | 25.7 | 0.00 | 0.00 | 0.00 | 33 | 1008.1 |
| 20260504223005 | 22 | 253 | 8.0 | 25.7 | 0.00 | 0.00 | 0.00 | 32 | 1008.1 |
| 20260504221506 | 22 | 253 | 4.8 | 19.3 | 0.00 | 0.00 | 0.00 | 33 | 1008.1 |
| 20260504220016 | 22 | 283 | 9.7 | 24.1 | 0.00 | 0.00 | 0.00 | 32 | 1008.3 |
| 20260504214554 | 22 | 229 | 11.3 | 24.1 | 0.00 | 0.00 | 0.00 | 33 | 1008.4 |
| 20260504213040 | 22 | 267 | 9.7 | 27.4 | 0.00 | 0.00 | 0.00 | 32 | 1008.6 |
| 20260504211549 | 22 | 245 | 8.0 | 29.0 | 0.00 | 0.00 | 0.00 | 31 | 1008.6 |
| 20260504210107 | 23 | 158 | 3.2 | 12.9 | 0.00 | 0.00 | 0.00 | 31 | 1008.5 |
| 20260504204603 | 22 | 244 | 14.5 | 30.6 | 0.00 | 0.00 | 0.00 | 31 | 1008.7 |
| 20260504204502 | 22 | 233 | 9.7 | 22.5 | 0.00 | 0.00 | 0.00 | 31 | 1008.5 |
| 20260504203019 | 22 | 272 | 11.3 | 32.2 | 0.00 | 0.00 | 0.00 | 31 | 1008.6 |
| 20260504201515 | 22 | 231 | 8.0 | 24.1 | 0.00 | 0.00 | 0.00 | 33 | 1008.8 |
| 20260504200016 | 22 | 197 | 11.3 | 30.6 | 0.00 | 0.00 | 0.00 | 31 | 1008.9 |
| 20260504194533 | 22 | 251 | 8.0 | 33.8 | 0.00 | 0.00 | 0.00 | 33 | 1009.0 |
| 20260504193026 | 22 | 208 | 11.3 | 27.4 | 0.00 | 0.00 | 0.00 | 32 | 1009.0 |
| 20260504191509 | 21 | 177 | 8.0 | 25.7 | 0.00 | 0.00 | 0.00 | 33 | 1009.2 |
| 20260504190010 | 21 | 276 | 6.4 | 33.8 | 0.00 | 0.00 | 0.00 | 33 | 1009.5 |
| 20260504184514 | 21 | 278 | 9.7 | 27.4 | 0.00 | 0.00 | 0.00 | 33 | 1009.7 |
| 20260504183022 | 21 | 231 | 14.5 | 29.0 | 0.00 | 0.00 | 0.00 | 33 | 1009.9 |
| 20260504181524 | 21 | 200 | 12.9 | 29.0 | 0.00 | 0.00 | 0.00 | 34 | 1010.0 |
| 20260504180032 | 21 | 258 | 16.1 | 32.2 | 0.00 | 0.00 | 0.00 | 34 | 1010.1 |